Wind_Speed
55 51 49 50 51 49 50 49 47 47 47 44 43 44 43 46 49 50 48 32 23 19 16 15 15 18 18 15 15 18 19 23 21 11 6 8 13 16 20 22 24 24 22 22
54 46 55 54 51 47 46 42 42 42 44 45 45 46 45 50 50 50 45 30 27 19 20 17 12 21 21 17 11 15 20 20 20 13 10 3 5 9 13 18 19 21 22 22
52 56 57 52 50 46 45 40 42 41 44 45 46 48 49 49 51 46 43 31 26 23 23 26 20 25 25 13 15 16 15 18 19 18 11 7 4 3 5 11 14 15 17 18
57 61 57 54 51 49 46 46 44 41 43 42 44 49 51 53 51 44 40 32 22 20 25 28 24 28 20 13 16 25 16 18 15 17 13 11 6 5 1 4 8 9 11 14
61 66 62 58 55 52 50 50 46 46 42 39 43 45 49 54 52 45 36 25 24 19 29 27 29 37 30 24 21 25 16 15 17 13 17 11 12 9 5 3 0 3 6 8
68 71 65 61 62 55 60 54 50 48 42 38 40 44 52 54 60 55 49 40 34 25 32 34 30 34 33 30 23 23 23 18 16 14 15 16 13 12 10 7 6 4 2 4
76 74 70 68 65 61 64 58 53 51 43 45 40 38 54 60 55 49 51 49 41 41 33 40 36 35 36 35 26 26 26 20 16 16 11 15 16 17 15 12 10 6 4 4
80 79 75 73 70 67 71 66 58 54 47 49 44 38 48 55 58 55 54 47 45 47 38 38 39 41 41 44 39 31 32 31 22 18 14 12 17 18 19 17 14 11 8 7
83 83 82 82 78 78 76 71 64 61 55 55 50 45 43 49 49 55 52 46 47 45 49 40 47 51 56 49 44 35 36 34 26 20 20 17 16 21 21 21 19 16 14 11
89 90 88 84 84 80 77 76 73 65 62 60 55 50 48 45 58 56 53 52 53 49 47 47 47 55 63 50 46 55 43 40 36 26 23 26 21 22 25 24 23 22 19 17
94 91 90 91 84 82 80 79 75 70 66 64 61 55 53 53 53 64 65 58 54 54 51 54 52 51 47 52 46 45 44 41 45 41 32 29 33 25 28 27 27 27 25 22
99 96 96 90 86 87 85 84 81 77 72 68 64 62 64 62 59 54 60 66 65 62 63 65 65 64 63 59 60 54 45 43 45 48 46 38 36 31 31 32 30 30 30 28
104 99 96 93 94 91 88 83 83 81 78 72 73 71 71 69 65 56 56 53 39 33 59 49 47 45 40 37 40 42 47 50 49 39 33 34 36 36 34 36 34 33 33 32
106 103 99 94 94 94 91 91 89 85 80 77 74 76 76 73 71 64 64 60 60 61 49 53 55 51 41 36 33 34 40 50 58 56 48 40 39 38 36 36 39 36 35 35
99 103 101 97 96 98 94 94 91 88 83 81 82 82 84 80 73 70 69 64 64 65 62 57 55 53 46 39 36 39 44 46 49 50 48 45 43 41 38 40 42 41 39 38
97 95 98 97 97 98 96 96 94 95 89 87 90 88 89 81 78 71 71 70 70 70 66 62 57 56 51 43 39 40 39 46 50 45 46 46 42 44 43 43 44 43 44 43
103 97 97 96 98 98 100 97 99 97 92 92 91 89 88 84 80 73 72 74 74 72 69 62 57 55 53 50 46 43 41 42 46 49 47 49 45 46 45 44 44 46 46 46
107 103 99 94 97 102 99 101 103 98 93 94 95 90 84 84 82 77 76 79 79 74 72 64 57 54 55 56 51 45 45 41 47 48 48 49 48 46 45 44 46 48 48 47
106 106 103 98 99 100 103 104 102 99 95 98 96 91 88 89 84 82 80 80 80 77 74 68 58 56 59 59 55 49 48 45 44 45 46 49 49 49 46 48 50 50 49 49
101 103 106 103 102 104 103 105 104 102 101 98 93 92 86 92 90 86 84 85 86 84 78 72 65 59 56 66 61 56 54 48 48 48 48 49 50 52 50 51 51 53 51 52
91 100 105 104 107 109 108 104 104 106 103 102 97 93 93 73 88 89 86 88 90 91 83 81 72 65 61 65 68 59 58 53 49 52 51 50 53 55 51 52 53 54 55 55
79 85 99 106 109 112 112 109 104 103 103 105 101 99 93 94 93 91 94 82 87 86 88 84 80 66 60 66 70 66 62 58 53 51 52 53 53 53 55 52 54 55 55 56
66 70 82 93 104 109 112 110 107 102 103 106 105 101 99 99 97 97 98 99 94 88 86 83 84 77 73 69 70 65 65 63 59 54 52 51 53 53 52 54 56 53 54 53
57 60 65 73 87 101 108 108 107 108 107 108 107 106 105 105 105 102 101 97 92 86 83 81 76 76 83 82 79 71 65 65 64 58 55 52 51 50 51 56 55 52 49 50
50 55 58 64 73 80 96 103 107 110 111 113 114 107 109 110 109 107 105 102 98 94 90 85 84 85 88 91 86 76 74 71 68 64 59 55 54 52 49 50 49 45 45 45
51 53 55 60 67 77 87 95 101 107 112 114 112 114 116 115 114 114 112 110 107 103 100 98 94 91 92 90 84 83 79 75 73 70 65 62 60 54 51 49 51 48 49 45
Wind_Direction
236 235 238 239 241 241 244 244 244 247 245 241 240 246 240 240 237 238 250 255 268 258 258 279 255 268 281 310 321 345 353 6 13 5 33 66 78 76 82 84 87 88 88 87
236 230 234 233 235 237 239 239 240 240 240 238 234 237 240 239 240 241 250 249 257 262 251 243 251 261 263 282 292 335 340 347 358 357 345 11 63 77 83 87 96 93 93 91
229 230 234 233 234 234 235 235 236 235 236 234 232 233 232 237 240 245 238 236 241 241 241 246 255 241 256 260 301 321 332 334 349 360 325 320 321 32 48 82 90 91 87 87
226 232 232 233 233 232 233 231 232 233 235 233 228 229 228 229 233 230 230 231 224 238 226 238 225 231 242 261 288 305 310 313 336 335 337 297 275 286 359 55 80 88 79 82
228 232 231 230 233 228 232 230 230 230 232 231 231 225 225 224 226 221 226 218 215 218 236 243 221 233 243 254 287 289 292 296 311 324 330 301 272 254 261 270 331 75 74 67
230 232 231 231 232 229 233 229 228 232 231 231 229 228 224 226 225 224 233 226 212 211 222 226 221 231 240 255 270 279 289 281 293 307 318 320 279 255 256 257 277 298 49 37
231 233 232 232 232 232 235 231 228 233 227 232 229 225 226 225 229 219 227 229 234 225 221 222 240 234 244 264 263 277 283 273 281 290 307 305 291 264 252 254 255 261 290 317
232 233 233 233 232 233 237 231 228 229 231 233 226 225 229 225 226 227 224 230 237 233 224 229 221 232 257 269 271 270 266 276 271 280 292 286 292 271 257 253 250 255 262 284
231 234 233 234 233 231 235 234 232 228 224 229 230 222 232 229 226 228 228 223 226 227 232 239 249 266 262 260 266 267 263 270 258 269 285 294 281 271 264 251 249 246 255 264
232 232 232 232 233 234 236 237 232 228 228 227 229 228 223 226 220 214 221 224 224 230 237 241 250 254 253 257 265 270 265 266 255 261 269 283 285 277 261 254 247 246 243 249
233 233 234 233 233 236 235 237 236 234 230 232 229 228 227 225 221 221 222 220 226 235 240 244 245 243 256 268 259 264 263 260 255 257 268 277 283 269 260 254 248 244 247 247
232 232 235 235 233 234 234 235 234 232 232 232 233 231 229 226 225 220 227 232 229 238 252 251 248 251 260 263 260 269 260 253 260 259 264 269 268 263 254 248 250 246 247 250
230 231 231 232 234 234 235 235 236 234 233 230 234 234 231 229 228 218 223 222 207 187 225 233 240 245 248 258 258 257 252 252 255 255 258 262 262 266 251 245 245 249 246 250
233 231 231 235 234 233 235 234 235 234 231 231 231 235 236 232 229 227 223 218 215 215 217 235 247 253 250 255 261 262 252 250 253 252 261 259 251 257 250 245 241 245 249 250
231 231 231 230 232 234 234 235 234 235 231 231 231 231 234 232 229 227 230 228 226 229 233 240 245 249 248 247 249 249 249 248 254 254 251 250 251 249 246 243 238 240 245 249
227 228 228 226 228 231 231 233 235 235 231 230 231 230 234 233 232 227 232 232 230 230 232 233 238 247 249 249 245 250 257 256 252 249 246 246 245 246 242 243 241 239 240 245
224 223 225 226 227 228 229 229 231 233 233 231 232 232 233 235 237 232 232 235 235 235 234 232 232 241 249 251 250 251 256 254 244 243 246 244 247 246 242 243 246 243 241 243
224 222 222 223 227 226 227 228 229 230 230 232 231 231 231 234 233 232 233 236 237 238 239 235 231 233 240 247 251 252 259 253 243 239 240 246 246 244 244 246 243 246 246 245
224 223 222 220 222 227 226 227 229 229 229 232 233 232 230 233 234 233 230 234 238 239 241 238 233 235 239 241 243 245 250 258 249 242 242 245 247 246 243 243 244 246 248 249
223 220 221 219 222 224 226 227 227 227 228 229 230 233 230 231 232 233 235 234 236 238 239 239 234 231 233 237 238 240 242 244 252 246 246 243 246 245 244 245 246 249 250 250
220 221 218 217 217 223 225 225 225 226 226 227 227 227 230 228 230 232 233 231 232 236 233 238 233 227 235 234 240 236 239 240 242 248 247 244 241 241 245 246 249 251 251 250
217 218 219 218 218 219 222 224 224 227 226 229 228 228 227 231 232 227 230 229 232 233 234 233 235 229 231 231 237 235 239 240 242 245 246 242 241 243 245 246 250 252 253 253
217 218 220 220 222 222 222 221 223 225 228 230 229 228 228 230 229 233 232 234 232 231 233 237 238 233 233 235 234 233 237 241 242 242 247 246 245 243 246 249 251 251 254 253
217 217 216 217 220 223 224 224 222 223 225 228 231 230 228 228 230 230 234 232 233 232 234 233 232 229 227 231 230 232 237 243 244 243 245 246 248 244 247 251 246 246 247 250
218 218 217 215 215 216 220 223 226 225 224 226 229 230 231 228 229 230 231 233 232 230 229 227 228 228 229 227 232 235 237 237 241 243 244 246 249 244 245 244 241 241 244 245
224 223 220 218 215 214 216 218 219 225 228 226 228 231 232 231 230 229 231 233 231 230 229 231 231 230 230 231 229 231 234 237 239 243 243 245 247 246 241 243 242 242 246 249
Height
10936 10943 10945 10948 10952 10960 10962 10971 10977 10979 10981 10985 10988 10996 11006 11007 11010 11012 11013 11021 11022 11024 11025 11027 11030 11030 11033 11034 11033 11032 11032 11031 11029 11028 11027 11028 11026 11025 11022 11019 11018 11016 11014 11011
10928 10937 10927 10936 10943 10952 10955 10962 10968 10970 10971 10977 10979 10984 10993 10996 11000 11002 11008 11010 11015 11019 11022 11026 11026 11029 11031 11031 11032 11031 11031 11031 11031 11029 11027 11028 11029 11028 11027 11024 11023 11022 11021 11019
10918 10915 10918 10929 10935 10944 10948 10954 10954 10961 10962 10969 10972 10974 10980 10985 10990 10993 10999 11005 11010 11013 11017 11022 11024 11027 11030 11029 11030 11030 11030 11030 11029 11029 11029 11028 11028 11028 11028 11027 11026 11025 11023 11021
10905 10901 10911 10919 10926 10934 10939 10942 10946 10951 10953 10960 10966 10968 10971 10976 10982 10988 10993 10997 11003 11007 11013 11017 11023 11023 11026 11025 11026 11028 11029 11030 11029 11029 11029 11029 11028 11029 11028 11028 11027 11028 11026 11024
10896 10889 10899 10909 10914 10921 10926 10930 10937 10940 10946 10954 10959 10964 10966 10967 10975 10983 10988 10991 10995 11001 11009 11013 11019 11019 11021 11022 11021 11024 11026 11027 11029 11029 11029 11029 11029 11029 11030 11030 11030 11029 11027 11025
10877 10877 10889 10898 10899 10912 10906 10919 10927 10932 10941 10947 10951 10958 10960 10963 10968 10977 10982 10988 10990 10998 11004 11008 11012 11014 11016 11018 11019 11020 11021 11024 11024 11026 11026 11027 11028 11028 11029 11030 11029 11028 11027 11025
10859 10866 10875 10882 10891 10900 10896 10908 10918 10924 10936 10933 10943 10950 10952 10956 10960 10969 10976 10981 10985 10992 10999 11002 11005 11008 11009 11013 11015 11016 11017 11020 11021 11022 11023 11023 11024 11025 11026 11027 11027 11027 11026 11025
10843 10851 10861 10870 10878 10884 10880 10890 10905 10915 10924 10924 10932 10942 10937 10947 10955 10960 10969 10975 10979 10985 10993 10996 10999 11000 11003 11007 11011 11012 11013 11017 11018 11018 11019 11020 11021 11022 11022 11024 11024 11025 11024 11024
10828 10834 10842 10847 10858 10862 10868 10877 10893 10900 10911 10913 10919 10930 10933 10940 10949 10956 10961 10968 10971 10978 10984 10988 10992 10995 10995 10999 11003 11006 11010 11012 11014 11014 11015 11017 11018 11019 11020 11020 11021 11022 11022 11022
10807 10809 10821 10832 10836 10849 10859 10865 10872 10889 10897 10903 10911 10920 10929 10932 10938 10948 10955 10959 10965 10972 10976 10980 10983 10985 10987 10992 10994 10997 11002 11005 11009 11010 11011 11013 11016 11016 11017 11018 11018 11019 11020 11021
10784 10796 10804 10810 10829 10839 10845 10849 10863 10875 10884 10891 10900 10908 10915 10917 10925 10935 10943 10952 10958 10963 10964 10965 10971 10976 10980 10988 10990 10991 10994 10997 11000 11003 11006 11008 11012 11012 11012 11014 11015 11016 11017 11019
10759 10776 10777 10801 10814 10816 10823 10832 10842 10856 10870 10880 10888 10895 10896 10903 10911 10926 10932 10942 10953 10953 10952 10954 10958 10968 10972 10976 10982 10986 10987 10989 10990 10995 10998 11001 11004 11006 11007 11009 11010 11012 11014 11015
10736 10752 10765 10780 10785 10798 10807 10823 10827 10839 10851 10867 10870 10876 10880 10888 10899 10921 10924 10933 10946 10949 10944 10939 10945 10957 10964 10967 10973 10975 10980 10981 10982 10985 10989 10992 10994 10997 10999 11001 11004 11006 11008 11009
10717 10737 10750 10761 10769 10777 10788 10796 10805 10819 10837 10849 10859 10857 10863 10876 10887 10901 10910 10924 10933 10932 10937 10934 10938 10944 10957 10962 10962 10964 10969 10972 10971 10975 10979 10982 10984 10987 10990 10993 10996 10997 11001 11002
10693 10712 10729 10738 10742 10755 10773 10777 10787 10801 10820 10830 10835 10835 10838 10852 10879 10890 10895 10909 10918 10923 10930 10933 10933 10937 10946 10953 10953 10953 10957 10961 10961 10965 10968 10971 10975 10977 10980 10983 10985 10988 10991 10994
10666 10685 10700 10713 10718 10731 10750 10756 10768 10776 10793 10804 10805 10818 10821 10843 10859 10881 10886 10892 10898 10904 10914 10922 10928 10931 10932 10940 10942 10943 10942 10943 10949 10952 10956 10961 10964 10968 10969 10973 10976 10979 10982 10985
10632 10653 10671 10691 10698 10712 10722 10737 10741 10753 10773 10785 10789 10807 10816 10834 10845 10869 10874 10876 10882 10890 10903 10915 10922 10922 10922 10923 10927 10930 10931 10932 10934 10939 10945 10949 10953 10957 10959 10962 10968 10969 10971 10975
10610 10630 10646 10668 10682 10680 10701 10709 10720 10737 10753 10762 10771 10791 10809 10816 10831 10848 10855 10858 10862 10874 10885 10900 10910 10912 10910 10911 10914 10917 10918 10921 10923 10928 10933 10938 10942 10946 10949 10953 10956 10958 10961 10965
10586 10611 10625 10642 10650 10664 10673 10687 10708 10727 10736 10738 10756 10777 10790 10797 10811 10826 10838 10839 10844 10856 10865 10880 10892 10897 10900 10900 10904 10908 10908 10909 10911 10915 10920 10926 10930 10934 10937 10941 10944 10947 10952 10955
10564 10584 10599 10618 10630 10633 10647 10665 10685 10701 10709 10718 10740 10754 10768 10776 10789 10803 10816 10827 10825 10836 10847 10858 10872 10880 10882 10885 10890 10895 10898 10900 10901 10904 10909 10914 10917 10920 10923 10928 10933 10937 10941 10943
10540 10558 10571 10590 10598 10609 10622 10642 10660 10672 10689 10701 10718 10730 10741 10754 10772 10780 10787 10799 10806 10813 10831 10839 10852 10863 10867 10869 10871 10880 10885 10889 10891 10892 10896 10900 10905 10909 10910 10915 10920 10925 10929 10931
10523 10538 10552 10565 10573 10582 10599 10621 10643 10661 10674 10677 10701 10711 10731 10739 10745 10755 10764 10771 10785 10796 10804 10819 10830 10844 10848 10852 10855 10863 10869 10874 10878 10880 10883 10886 10891 10895 10900 10901 10908 10912 10915 10918
10507 10522 10536 10551 10568 10574 10581 10600 10623 10643 10656 10662 10676 10694 10708 10715 10726 10733 10744 10754 10764 10777 10787 10800 10811 10823 10830 10833 10840 10848 10852 10857 10862 10866 10870 10874 10877 10882 10887 10891 10895 10899 10902 10905
10497 10507 10520 10534 10548 10560 10575 10589 10607 10617 10631 10640 10652 10668 10682 10689 10698 10709 10722 10737 10751 10762 10769 10779 10791 10800 10808 10812 10821 10832 10839 10841 10845 10851 10856 10861 10865 10870 10875 10877 10881 10885 10890 10893
10488 10495 10507 10519 10527 10542 10554 10573 10591 10596 10607 10617 10625 10643 10652 10666 10676 10685 10697 10710 10724 10738 10748 10756 10767 10775 10779 10788 10800 10813 10820 10825 10829 10835 10841 10847 10852 10857 10862 10864 10868 10873 10876 10879
10477 10484 10493 10502 10513 10523 10532 10548 10564 10574 10581 10594 10607 10615 10624 10636 10650 10662 10671 10680 10694 10707 10720 10729 10742 10754 10759 10766 10784 10795 10800 10807 10814 10820 10826 10832 10836 10842 10847 10852 10857 10860 10863 10866